[[{"header":{"parameterUnit":"m.s-1","parameterCategory":2,"la1":30.2991,"la2":30.254,"lo1":-89.0895,"lo2":-89.0444,"dy":0.0017,"dx":0.0017,"nx":28,"ny":28,"refTime":"2025-09-01T21:00:00:Z","depth":"0","parameterNumber":2,"parameterNumberName":"U-component_of_CURRENTS"},"data":[0,0,0,0,0,0,0,0,0,0,0,0,0,0,0,0,0,0,0,0,0,0,0,0,0,0,0,0,0,0,0,0,0,0,0,0,0,0,0,0,0,0,0,0,0,0,0,0,0,0,0,0,0,0,0,0,0,0,0.3414,0.3414,0,0.344,0.344,0.3441,0.3422,0.3421,0.342,0.342,0.3398,0.3398,0.3398,0,0,0,0,0,0,0,0,0,0,0,0,0,0.3391,0.3391,0.3414,0.3415,0.3415,0.344,0.344,0.3441,0.3422,0.3421,0.342,0.3419,0.3398,0.3398,0.3398,0,0,0,0,0,0,0,0,0,0,0,0,0,0.3405,0.3391,0.3414,0.341,0.341,0.344,0.3441,0.3441,0.3422,0.3421,0.342,0.3419,0.3398,0.3398,0.3398,0.3418,0,0,0.3398,0.3398,0,0,0,0,0,0,0,0,0.3405,0.3406,0.341,0.341,0.3411,0.3428,0.3424,0.3431,0.3422,0.3415,0.342,0.3419,0.3405,0.3405,0.341,0.3417,0.3416,0.3398,0.3398,0.3398,0.3398,0,0,0,0,0,0,0,0.3404,0.3405,0.3422,0.3411,0.3411,0.3422,0.3423,0.3426,0.3413,0.3416,0.3415,0.3422,0.3405,0.341,0.3409,0.3415,0.3398,0.3398,0.3398,0.3398,0.3466,0.3468,0,0,0,0,0,0,0.3403,0.3404,0.3422,0.3423,0.3407,0.3423,0.3424,0.3422,0.3414,0.3413,0.3422,0.3421,0.341,0.3409,0.3408,0.3453,0.3398,0.3398,0.3398,0.3464,0.3466,0.3468,0,0,0,0,0,0,0.3402,0.3404,0.3421,0.3416,0.3419,0.3425,0.3423,0.3423,0.3429,0.342,0.3417,0.3429,0.3409,0.3408,0.3425,0.3451,0.3398,0.3398,0.3462,0.3465,0.3467,0.3528,0,0,0,0,0,0,0.3402,0.3404,0.3404,0.3416,0.342,0.3446,0.3424,0.3424,0.3436,0.3434,0.3425,0.3422,0.3409,0.3425,0.3425,0.345,0.3398,0.346,0.3463,0.3466,0.3524,0.3533,0.354,0,0,0,0,0,0.34,0.3405,0.3403,0.3406,0.3419,0.3447,0.345,0.3449,0.3437,0.3449,0.3446,0.3422,0.3446,0.3427,0.3426,0.3451,0.3458,0.3462,0.3466,0.352,0.3531,0.354,0,0,0,0,0,0,0.3389,0.3404,0.3402,0.3408,0.343,0.3445,0.3454,0.3456,0.3464,0.3458,0.3443,0.3441,0.3471,0.3455,0.3434,0.3483,0.3449,0.3453,0.3491,0.35,0.3508,0.3512,0.3398,0,0,0,0,0,0.3389,0.3399,0.3417,0.3424,0.3434,0.3446,0.3456,0.346,0.347,0.3472,0.3467,0.3469,0.3489,0.3488,0.35,0.352,0.3537,0.3538,0.3546,0.3553,0.3558,0.3625,0.364,0.3481,0.3481,0.3481,0,0,0.3386,0.3397,0.3402,0.3424,0.3436,0.3457,0.3449,0.3471,0.349,0.3469,0.3487,0.35,0.3504,0.3536,0.3546,0.3521,0.3609,0.3558,0.3564,0.3565,0.3631,0.3646,0.366,0.3484,0.3484,0.3483,0,0,0.3395,0.3397,0.3411,0.343,0.3457,0.347,0.3479,0.3499,0.3508,0.3533,0.3535,0.3568,0.3571,0.3596,0.3605,0.3666,0.3658,0.3663,0.3695,0.3761,0.3775,0.3787,0.3836,0.3852,0.3657,0.3657,0.3657,0,0.3391,0.3405,0.3422,0.3442,0.3457,0.3476,0.3497,0.3518,0.3542,0.3562,0.3543,0.3604,0.3606,0.3668,0.3687,0.3685,0.3712,0.3655,0.3772,0.3784,0.3796,0.3843,0.386,0.366,0.366,0.3659,0.3659,0,0.341,0.3423,0.3434,0.3464,0.3488,0.3509,0.3541,0.3567,0.3576,0.36,0.366,0.3679,0.3714,0.3727,0.3719,0.3806,0.3797,0.3783,0.3746,0.3815,0.3861,0.3878,0.3665,0.3664,0.3663,0.3662,0,0,0.3392,0.3437,0.344,0.3456,0.3497,0.3519,0.3562,0.3612,0.3658,0.3679,0.374,0.378,0.3798,0.3811,0.3823,0.3873,0.3979,0.3857,0.3859,0.3904,0.4119,0.4027,0.4036,0.3985,0.3988,0.399,0.4121,0,0.3398,0.343,0.3459,0.3495,0.351,0.3549,0.3593,0.3644,0.3694,0.3762,0.3799,0.3865,0.3828,0.3865,0.3908,0.3978,0.4024,0.3944,0.4047,0.405,0.3958,0.4052,0.388,0.3975,0.4137,0.414,0.4142,0,0.3398,0.3423,0.3451,0.3508,0.3522,0.3551,0.3634,0.3684,0.3787,0.3833,0.39,0.3937,0.4026,0.3984,0.411,0.4061,0.409,0.4126,0.4132,0.4034,0.3988,0.3931,0.3998,0.3886,0.4167,0.4165,0.4163,0,0.3364,0.3415,0.3435,0.345,0.3521,0.3549,0.3597,0.3697,0.3768,0.3896,0.3958,0.4053,0.4117,0.4176,0.4223,0.4186,0.4359,0.4318,0.426,0.4253,0.4119,0.4095,0.4084,0.4404,0.4404,0.4403,0.4403,0,0.3351,0.3364,0.3418,0.343,0.3479,0.3532,0.3619,0.3692,0.3819,0.391,0.3989,0.4077,0.4169,0.4257,0.4282,0.4325,0.4405,0.4289,0.4291,0.4134,0.4111,0.4014,0.397,0.4408,0.4407,0.4406,0.4405,0,0.3307,0.3336,0.3371,0.344,0.3462,0.3501,0.3624,0.3694,0.3815,0.3941,0.3985,0.4135,0.4248,0.4318,0.4447,0.4398,0.433,0.4444,0.4243,0.4217,0.401,0.3975,0.3851,0.3738,0.4404,0.4402,0.4401,0,0.3281,0.3292,0.337,0.3394,0.3423,0.3493,0.3544,0.368,0.376,0.3962,0.401,0.4168,0.4259,0.4405,0.4381,0.4421,0.4293,0.4253,0.4137,0.3992,0.3958,0.3814,0.3717,0.3999,0.3994,0.3991,0.3988,0,0.324,0.3273,0.3308,0.3362,0.3406,0.3472,0.3551,0.3612,0.3768,0.3865,0.3995,0.4098,0.4231,0.4197,0.4242,0.4238,0.4032,0.4177,0.4094,0.3695,0.3475,0.3367,0.3918,0.3956,0.3959,0.3962,0.3963,0.3965,0.3204,0.3224,0.3273,0.3311,0.3361,0.3402,0.3409,0.3503,0.3596,0.3674,0.3865,0.3909,0.3989,0.4027,0.4001,0.381,0.3816,0.3666,0.366,0.3545,0.3346,0.3812,0.3802,0.3804,0.3806,0.3807,0.3809,0,0.3131,0.3162,0.3211,0.3235,0.3231,0.3301,0.3363,0.3334,0.335,0.3474,0.3549,0.3575,0.3572,0.3598,0.3488,0.3318,0.3174,0.3216,0.2988,0.2937,0.3421,0.3311,0.3111,0.3111,0.3111,0.3111,0.3111,0.3112,0.3093,0.3094,0.3117,0.3072,0.3083,0.3026,0.3023,0.301,0.3049,0.3019,0.2997,0.3072,0.324,0.326,0.3089,0.2993,0.2744,0.2596,0.2614,0.2974,0.3015,0.3054,0.2939,0.2664,0.2664,0.1989,0.1984,0.198]},{"header":{"parameterUnit":"m.s-1","parameterCategory":2,"la1":30.2991,"la2":30.254,"lo1":-89.0895,"lo2":-89.0444,"dy":0.0017,"dx":0.0017,"nx":28,"ny":28,"refTime":"2025-09-01T21:00:00:Z","depth":"0","parameterNumber":3,"parameterNumberName":"V-component_of_CURRENTS"},"data":[0,0,0,0,0,0,0,0,0,0,0,0,0,0,0,0,0,0,0,0,0,0,0,0,0,0,0,0,0,0,0,0,0,0,0,0,0,0,0,0,0,0,0,0,0,0,0,0,0,0,0,0,0,0,0,0,0,0,0.0201,0.0201,0,0.0138,0.0137,0.0136,0.009,0.009,0.009,0.009,0.0007,0.0005,0.0003,0,0,0,0,0,0,0,0,0,0,0,0,0,0.0217,0.0217,0.0201,0.0201,0.02,0.0138,0.0137,0.0136,0.009,0.009,0.009,0.009,0.0008,0.0006,0.0003,0,0,0,0,0,0,0,0,0,0,0,0,0,0.0184,0.0217,0.0201,0.0173,0.017,0.0139,0.0137,0.0136,0.009,0.009,0.009,0.009,0.0009,0.0006,0.0003,-0.0015,0,0,-0.0007,-0.0008,0,0,0,0,0,0,0,0,0.0186,0.0183,0.0177,0.0174,0.0171,0.0125,0.0113,0.0086,0.009,0.0116,0.009,0.009,0.0047,0.0041,0.0025,-0.0019,-0.0022,-0.0007,-0.0009,-0.0011,-0.0011,0,0,0,0,0,0,0,0.0189,0.0185,0.0173,0.0177,0.0173,0.0141,0.0136,0.0107,0.008,0.0114,0.0111,0.011,0.0045,0.0028,0.0022,-0.0024,-0.0007,-0.001,-0.0012,-0.0013,-0.0071,-0.007,0,0,0,0,0,0,0.0207,0.0188,0.0175,0.0171,0.0183,0.0141,0.0136,0.0137,0.0081,0.0073,0.011,0.0108,0.0033,0.0026,0.0019,0.0023,-0.0011,-0.0014,-0.0015,-0.0071,-0.0071,-0.007,0,0,0,0,0,0,0.0208,0.0207,0.0177,0.0181,0.0175,0.0142,0.0143,0.0136,0.0124,0.0079,0.007,0.0107,0.0033,0.0024,0.0003,0.0018,-0.0015,-0.0018,-0.0072,-0.0071,-0.007,0.0012,0,0,0,0,0,0,0.0209,0.0207,0.0211,0.0182,0.0176,0.0172,0.0143,0.0135,0.0125,0.0122,0.0073,0.0065,0.0032,0.0008,0.0,0.0013,-0.002,-0.0072,-0.0071,-0.0071,0.0009,0.0015,0.0021,0,0,0,0,0,0.0209,0.0222,0.0211,0.021,0.0183,0.0173,0.0166,0.0139,0.0125,0.0126,0.0094,0.0067,0.0007,0.0006,-0.0004,0.0009,-0.0072,-0.0071,-0.0071,0.0006,0.0014,0.002,0,0,0,0,0,0,0.0228,0.0218,0.0206,0.0213,0.0199,0.0166,0.0164,0.0146,0.012,0.0116,0.0071,0.006,0.0048,0.0016,0.0016,-0.0007,-0.0037,-0.0038,0.0024,0.0031,0.0037,0.006,-0.0023,0,0,0,0,0,0.0236,0.0243,0.0224,0.023,0.0226,0.0196,0.0187,0.0171,0.0146,0.0134,0.0102,0.0068,0.0042,0.0028,-0.0002,-0.0014,-0.0035,-0.0013,-0.0007,-0.0001,0.001,-0.001,-0.0005,-0.0067,-0.0067,-0.0067,0,0,0.0244,0.024,0.0242,0.0234,0.0218,0.0226,0.0189,0.0185,0.0191,0.013,0.0125,0.0087,0.0043,0.0031,0.0022,0.0008,0.0006,-0.0,0.0005,0.0013,-0.0009,-0.0003,0.0003,-0.0067,-0.0067,-0.0067,0,0,0.0272,0.0261,0.0278,0.0274,0.0264,0.0248,0.0254,0.0228,0.0216,0.0205,0.0166,0.0142,0.0098,0.0074,0.0054,0.0075,0.0039,0.0062,0.0112,0.0093,0.0098,0.0103,0.0093,0.0096,0.0066,0.0066,0.0066,0,0.0282,0.0302,0.0281,0.0298,0.0303,0.0267,0.029,0.0273,0.0244,0.0243,0.0216,0.0161,0.0121,0.0113,0.0117,0.0091,0.0076,0.0091,0.0103,0.0107,0.011,0.0098,0.01,0.007,0.007,0.007,0.0069,0,0.0325,0.034,0.0351,0.0364,0.0365,0.0377,0.0361,0.0356,0.0335,0.0319,0.0303,0.0244,0.0214,0.0195,0.016,0.0164,0.0146,0.0114,0.009,0.0121,0.0107,0.0108,0.0076,0.0075,0.0074,0.0073,0,0,0.0355,0.0378,0.0383,0.0404,0.0403,0.0413,0.0425,0.043,0.0452,0.0403,0.0423,0.036,0.0327,0.0302,0.0253,0.0232,0.0236,0.0188,0.0185,0.0189,0.0204,0.0185,0.0183,0.0207,0.0208,0.0208,0.0189,0,0.0396,0.045,0.0447,0.0497,0.0523,0.0502,0.052,0.0518,0.0511,0.0519,0.0453,0.0445,0.0369,0.0358,0.0324,0.0266,0.0241,0.0245,0.0163,0.0161,0.0149,0.0184,0.0197,0.0181,0.0189,0.0189,0.0189,0,0.0442,0.0475,0.0532,0.0573,0.0583,0.0602,0.0637,0.0654,0.0651,0.0643,0.0618,0.0567,0.053,0.0455,0.037,0.0378,0.0299,0.0242,0.0239,0.0194,0.0144,0.0146,0.0181,0.0029,0.019,0.019,0.019,0,0.0483,0.0535,0.0587,0.06,0.0635,0.0655,0.0676,0.0691,0.0732,0.0729,0.0751,0.0685,0.0668,0.056,0.0435,0.0405,0.0346,0.0287,0.0192,0.019,0.0171,0.0167,0.0058,0.0219,0.0219,0.0219,0.0219,0,0.0533,0.0575,0.061,0.0638,0.0708,0.071,0.0788,0.0796,0.0837,0.091,0.0821,0.0857,0.0693,0.0631,0.0491,0.0364,0.0387,0.0215,0.0187,0.02,0.0199,0.0039,-0.0055,0.0218,0.0219,0.0219,0.0219,0,0.0574,0.0593,0.0659,0.0707,0.073,0.0782,0.087,0.0933,0.095,0.1044,0.1045,0.1004,0.0927,0.0758,0.0606,0.0456,0.0232,0.026,0.0292,0.0267,0.0017,-0.0073,-0.022,-0.0284,0.0151,0.0151,0.015,0,0.0602,0.0638,0.0715,0.0767,0.0793,0.0874,0.0939,0.0987,0.107,0.1147,0.1202,0.1149,0.1161,0.093,0.0645,0.0408,0.0236,0.0237,0.0165,0.0019,-0.0102,-0.0176,-0.0225,0.0176,0.0176,0.0176,0.0176,0,0.066,0.0681,0.0739,0.0843,0.0918,0.102,0.1117,0.12,0.1277,0.1371,0.1487,0.1508,0.1274,0.1047,0.0688,0.0507,0.0128,0.0224,0.0064,-0.0093,-0.0172,-0.0251,0.0175,0.0174,0.0174,0.0175,0.0175,0.0175,0.0703,0.0755,0.0827,0.0928,0.1025,0.1151,0.1247,0.1376,0.1536,0.1698,0.171,0.1786,0.1406,0.0927,0.0651,0.0122,0.0102,-0.0045,-0.0139,-0.0198,-0.0272,0.0156,0.0123,0.0122,0.0122,0.0122,0.0122,0,0.0757,0.0815,0.0912,0.1032,0.1147,0.1186,0.1359,0.1477,0.1684,0.1857,0.1988,0.1858,0.1407,0.0906,0.0183,-0.0174,-0.0304,-0.0368,-0.0474,-0.0506,-0.0126,-0.0137,-0.0217,-0.0217,-0.0217,-0.0217,-0.0216,-0.0216,0.0788,0.0877,0.0925,0.111,0.1202,0.1361,0.1464,0.1655,0.1813,0.2037,0.2105,0.2126,0.1715,0.0475,-0.0334,-0.0497,-0.0757,-0.0824,-0.0945,-0.0697,-0.0674,-0.0653,-0.0685,-0.0879,-0.088,-0.1271,-0.1275,-0.1279]}],[{"header":{"parameterUnit":"m.s-1","parameterCategory":2,"la1":30.2991,"la2":30.254,"lo1":-89.0895,"lo2":-89.0444,"dy":0.0017,"dx":0.0017,"nx":28,"ny":28,"refTime":"2025-09-01T21:00:00:Z","depth":"2","parameterNumber":2,"parameterNumberName":"U-component_of_CURRENTS"},"data":[0,0,0,0,0,0,0,0,0,0,0,0,0,0,0,0,0,0,0,0,0,0,0,0,0,0,0,0,0,0,0,0,0,0,0,0,0,0,0,0,0,0,0,0,0,0,0,0,0,0,0,0,0,0,0,0,0,0,0.2668,0.2668,0,0.2694,0.2695,0.2695,0.2686,0.2686,0.2685,0.2685,0.2702,0.2703,0.2704,0,0,0,0,0,0,0,0,0,0,0,0,0,0.2642,0.2642,0.2668,0.2669,0.2669,0.2694,0.2695,0.2695,0.2686,0.2686,0.2685,0.2685,0.2702,0.2703,0.2704,0,0,0,0,0,0,0,0,0,0,0,0,0,0.2657,0.2642,0.2668,0.267,0.267,0.2694,0.2695,0.2695,0.2686,0.2686,0.2685,0.2685,0.2702,0.2703,0.2704,0.2722,0,0,0.2708,0.2708,0,0,0,0,0,0,0,0,0.2656,0.2657,0.2669,0.267,0.267,0.2689,0.2692,0.2704,0.2686,0.2678,0.2685,0.2684,0.2699,0.27,0.2703,0.2723,0.2723,0.2708,0.2709,0.2709,0.2709,0,0,0,0,0,0,0,0.2655,0.2657,0.2676,0.267,0.267,0.268,0.2681,0.2694,0.2689,0.2678,0.2678,0.2685,0.2699,0.2702,0.2704,0.2724,0.2708,0.2709,0.271,0.271,0.2791,0.2792,0,0,0,0,0,0,0.2656,0.2655,0.2675,0.2677,0.2665,0.2681,0.2682,0.2681,0.2689,0.269,0.2686,0.2685,0.27,0.2702,0.2704,0.2759,0.2709,0.271,0.2711,0.2789,0.2791,0.2793,0,0,0,0,0,0,0.2655,0.2657,0.2674,0.2669,0.2672,0.2682,0.2681,0.2682,0.2707,0.2695,0.2696,0.2712,0.27,0.2702,0.2727,0.2759,0.2711,0.2712,0.2788,0.279,0.2792,0.2848,0,0,0,0,0,0,0.2654,0.2656,0.2662,0.2669,0.2673,0.2701,0.2682,0.2683,0.2712,0.2711,0.2718,0.2717,0.27,0.2725,0.2728,0.2759,0.2713,0.2786,0.2789,0.2791,0.2845,0.2852,0.2859,0,0,0,0,0,0.2652,0.2661,0.2662,0.2665,0.2678,0.2703,0.2706,0.2709,0.2714,0.2729,0.273,0.2718,0.2744,0.2727,0.273,0.2763,0.2785,0.2788,0.2791,0.2842,0.2851,0.2858,0,0,0,0,0,0,0.2653,0.2661,0.2662,0.2672,0.2693,0.2702,0.2721,0.2729,0.2744,0.2743,0.2736,0.2736,0.2777,0.2762,0.2744,0.2794,0.2764,0.2768,0.2801,0.281,0.2817,0.2818,0.2714,0,0,0,0,0,0.2656,0.2662,0.2679,0.2689,0.2705,0.2721,0.2735,0.2736,0.2749,0.2756,0.276,0.2767,0.279,0.2793,0.2807,0.283,0.284,0.2853,0.286,0.2866,0.287,0.2926,0.2939,0.2803,0.2803,0.2803,0,0,0.2655,0.2665,0.2666,0.269,0.2707,0.2732,0.2728,0.2754,0.2769,0.2756,0.2782,0.2801,0.2807,0.2834,0.285,0.2824,0.2909,0.287,0.2875,0.2876,0.2931,0.2945,0.2956,0.2805,0.2805,0.2805,0,0,0.2659,0.2674,0.2682,0.2706,0.2736,0.275,0.2768,0.2789,0.2796,0.2827,0.2827,0.2858,0.2884,0.2887,0.2896,0.2951,0.2957,0.2966,0.2989,0.3044,0.3055,0.3066,0.3092,0.3104,0.2954,0.2954,0.2954,0,0.2659,0.2674,0.2692,0.2716,0.2737,0.2766,0.2788,0.2806,0.2828,0.2843,0.2841,0.291,0.2908,0.2955,0.2967,0.2967,0.2996,0.2955,0.3053,0.3064,0.3074,0.3098,0.3111,0.2957,0.2957,0.2957,0.2956,0,0.2671,0.2692,0.2709,0.2744,0.2768,0.2797,0.2824,0.2851,0.2875,0.2892,0.2954,0.2964,0.3002,0.3014,0.3005,0.3077,0.3075,0.3069,0.3032,0.3091,0.3112,0.3124,0.2962,0.2961,0.296,0.2959,0,0,0.2644,0.2703,0.2709,0.2728,0.2786,0.2801,0.2845,0.2888,0.293,0.296,0.3017,0.3053,0.3075,0.3086,0.3093,0.3129,0.3212,0.3129,0.313,0.3153,0.3332,0.3273,0.328,0.3238,0.3241,0.3243,0.3317,0,0.2652,0.2689,0.2721,0.2762,0.2787,0.2832,0.2878,0.2917,0.2962,0.3024,0.3056,0.3121,0.3099,0.3137,0.3171,0.3215,0.3249,0.3191,0.3272,0.3273,0.3214,0.3294,0.3032,0.3072,0.3329,0.3331,0.3333,0,0.2654,0.2679,0.2714,0.2775,0.2794,0.2828,0.2905,0.2947,0.3038,0.3082,0.3148,0.3189,0.3252,0.3233,0.3324,0.3298,0.3319,0.3341,0.3344,0.3277,0.3238,0.3056,0.3085,0.3353,0.3352,0.335,0.3349,0,0.2612,0.2674,0.2699,0.272,0.2798,0.2826,0.2875,0.2962,0.3018,0.3127,0.3187,0.3271,0.3331,0.3381,0.3414,0.339,0.3518,0.3483,0.3444,0.3439,0.3222,0.3194,0.3553,0.3553,0.3553,0.3552,0.3552,0,0.2605,0.2619,0.2685,0.2696,0.2752,0.2806,0.2882,0.295,0.3065,0.3134,0.3214,0.3283,0.338,0.3452,0.3463,0.3497,0.3556,0.3468,0.3467,0.3233,0.3206,0.3449,0.3436,0.3555,0.3554,0.3554,0.3553,0,0.2549,0.2593,0.2625,0.2701,0.2734,0.2768,0.2888,0.2935,0.3056,0.3152,0.3196,0.3332,0.3424,0.3495,0.3592,0.3557,0.3594,0.3586,0.3295,0.3259,0.346,0.345,0.355,0.3549,0.3548,0.3547,0.3546,0,0.2524,0.2543,0.2616,0.2638,0.2674,0.2743,0.279,0.2922,0.2974,0.3156,0.3186,0.3338,0.3398,0.3521,0.3521,0.3551,0.3602,0.3306,0.3203,0.3478,0.3467,0.3458,0.3448,0.2932,0.2926,0.2922,0.2918,0,0.2482,0.2512,0.2526,0.2581,0.2623,0.2681,0.2754,0.2796,0.2937,0.3012,0.3115,0.3193,0.3336,0.3261,0.3328,0.3299,0.328,0.3213,0.3598,0.2979,0.2903,0.289,0.29,0.2877,0.2881,0.2884,0.2886,0.2888,0.2442,0.2446,0.2472,0.251,0.256,0.2585,0.2578,0.2641,0.2701,0.2769,0.2935,0.2955,0.304,0.3008,0.2932,0.2884,0.3106,0.295,0.296,0.2977,0.2898,0.2825,0.2768,0.2771,0.2774,0.2777,0.2779,0,0.2392,0.239,0.2405,0.2423,0.2412,0.2489,0.2523,0.2467,0.2444,0.256,0.2623,0.2468,0.2451,0.2531,0.2404,0.242,0.2361,0.231,0.22,0.2246,0.2285,0.2166,0.1844,0.1841,0.1837,0.1834,0,0,0.2354,0.2321,0.2311,0.2259,0.2277,0.2215,0.2199,0.214,0.2169,0.2121,0.213,0.2343,0.2468,0.2112,0.2085,0.1936,0.2063,0.1863,0.2624,0.2541,0.2576,0.2682,0.2556,0,0,0,0,0]},{"header":{"parameterUnit":"m.s-1","parameterCategory":2,"la1":30.2991,"la2":30.254,"lo1":-89.0895,"lo2":-89.0444,"dy":0.0017,"dx":0.0017,"nx":28,"ny":28,"refTime":"2025-09-01T21:00:00:Z","depth":"2","parameterNumber":3,"parameterNumberName":"V-component_of_CURRENTS"},"data":[0,0,0,0,0,0,0,0,0,0,0,0,0,0,0,0,0,0,0,0,0,0,0,0,0,0,0,0,0,0,0,0,0,0,0,0,0,0,0,0,0,0,0,0,0,0,0,0,0,0,0,0,0,0,0,0,0,0,0.0161,0.016,0,0.011,0.0109,0.0109,0.0077,0.0077,0.0076,0.0076,0.0004,0.0002,-0.0,0,0,0,0,0,0,0,0,0,0,0,0,0,0.0174,0.0174,0.0161,0.016,0.016,0.011,0.0109,0.0109,0.0077,0.0077,0.0076,0.0076,0.0004,0.0002,-0.0,0,0,0,0,0,0,0,0,0,0,0,0,0,0.0149,0.0174,0.0161,0.0139,0.0136,0.011,0.0109,0.0108,0.0077,0.0077,0.0076,0.0076,0.0005,0.0002,-0.0001,-0.0016,0,0,-0.0009,-0.001,0,0,0,0,0,0,0,0,0.0151,0.0149,0.0143,0.014,0.0138,0.0101,0.0087,0.0066,0.0077,0.0098,0.0076,0.0076,0.0035,0.003,0.0019,-0.0019,-0.0023,-0.0009,-0.0011,-0.0012,-0.0013,0,0,0,0,0,0,0,0.0153,0.015,0.0139,0.0142,0.0139,0.0112,0.0109,0.0083,0.0066,0.0096,0.0094,0.0091,0.0033,0.0022,0.0017,-0.0024,-0.0009,-0.0012,-0.0014,-0.0015,-0.0068,-0.0067,0,0,0,0,0,0,0.0165,0.0152,0.0141,0.0138,0.0146,0.0113,0.0109,0.0112,0.0067,0.006,0.0091,0.0089,0.0026,0.002,0.0014,0.0015,-0.0012,-0.0015,-0.0017,-0.0068,-0.0068,-0.0067,0,0,0,0,0,0,0.0165,0.0164,0.0143,0.0144,0.014,0.0113,0.0116,0.0111,0.0102,0.0063,0.0056,0.0088,0.0026,0.0018,0.0001,0.0011,-0.0016,-0.0019,-0.0068,-0.0068,-0.0067,0.0003,0,0,0,0,0,0,0.0166,0.0165,0.0169,0.0146,0.0141,0.0138,0.0116,0.011,0.01,0.0098,0.0058,0.0051,0.0025,0.0005,-0.0002,0.0007,-0.0021,-0.0069,-0.0068,-0.0068,-0.0,0.0005,0.001,0,0,0,0,0,0.0167,0.0178,0.017,0.0168,0.0148,0.0138,0.0133,0.0112,0.0101,0.0102,0.0077,0.0053,0.0003,0.0003,-0.0005,0.0003,-0.0069,-0.0068,-0.0068,-0.0002,0.0004,0.001,0,0,0,0,0,0,0.0185,0.0175,0.0165,0.0173,0.016,0.0134,0.0132,0.0117,0.0097,0.0095,0.0057,0.0048,0.0036,0.0009,0.001,-0.0012,-0.0037,-0.0038,0.0015,0.0021,0.0026,0.0043,-0.0023,0,0,0,0,0,0.0192,0.0198,0.0181,0.0186,0.0183,0.0157,0.0149,0.0138,0.0118,0.0109,0.0081,0.0052,0.0031,0.0019,-0.0007,-0.0018,-0.0045,-0.0019,-0.0014,-0.001,-0.0002,-0.0032,-0.0029,-0.0065,-0.0065,-0.0065,0,0,0.0199,0.0195,0.0197,0.0191,0.0177,0.0185,0.0152,0.0149,0.0155,0.0104,0.0101,0.0068,0.0031,0.0022,0.0013,0.0001,-0.0014,-0.0009,-0.0004,0.0,-0.0031,-0.0028,-0.0024,-0.0065,-0.0065,-0.0065,0,0,0.0222,0.0215,0.023,0.0226,0.0216,0.0204,0.0207,0.0186,0.0176,0.0166,0.0134,0.0112,0.0075,0.0055,0.0039,0.0055,0.0014,0.0043,0.0084,0.0055,0.0058,0.006,0.0031,0.0031,0.0047,0.0047,0.0047,0,0.0231,0.025,0.0231,0.0247,0.0252,0.0219,0.024,0.0226,0.0201,0.02,0.0176,0.0127,0.0093,0.0085,0.009,0.0068,0.0043,0.0066,0.0063,0.0064,0.0065,0.0035,0.0033,0.005,0.005,0.0049,0.0049,0,0.0269,0.0283,0.0292,0.0305,0.0306,0.0318,0.0303,0.03,0.028,0.0265,0.0247,0.0196,0.017,0.0152,0.0125,0.0119,0.0096,0.0073,0.0051,0.0073,0.004,0.0037,0.0055,0.0054,0.0053,0.0052,0,0,0.0293,0.0316,0.0319,0.0341,0.0342,0.0351,0.0362,0.0366,0.0383,0.0338,0.0348,0.0296,0.0264,0.0244,0.0201,0.017,0.0153,0.013,0.0127,0.011,0.0089,0.0073,0.0068,0.0129,0.0129,0.0129,0.0063,0,0.0329,0.0378,0.0376,0.0423,0.0449,0.0432,0.0449,0.0447,0.0435,0.0435,0.0374,0.0364,0.0301,0.0291,0.025,0.0182,0.0147,0.0172,0.0063,0.006,0.005,0.0065,0.0092,0.0036,0.006,0.0059,0.0059,0,0.0368,0.04,0.0453,0.0495,0.0504,0.0523,0.0554,0.0569,0.0557,0.0546,0.0517,0.0468,0.0421,0.036,0.0252,0.0271,0.0188,0.0124,0.012,0.008,0.0039,0.0016,0.0029,0.0053,0.0054,0.0054,0.0054,0,0.0404,0.0454,0.0503,0.0517,0.0554,0.0573,0.0593,0.0602,0.0638,0.0621,0.0634,0.0559,0.0534,0.0419,0.0283,0.0269,0.0157,0.0121,0.0026,0.0023,0.0012,0.0009,0.004,0.004,0.0041,0.0041,0.0041,0,0.0448,0.0487,0.0525,0.0552,0.062,0.0625,0.0695,0.0699,0.0729,0.0781,0.0698,0.0714,0.0548,0.046,0.0318,0.0171,0.0184,0.0038,0.0008,0.0037,0.0037,0.0023,0.0022,0.0038,0.0039,0.0039,0.004,0,0.0481,0.0502,0.0566,0.0616,0.0639,0.0691,0.0774,0.083,0.0837,0.0901,0.0899,0.0839,0.0728,0.055,0.0372,0.0234,0.0081,0.0021,0.0066,0.0042,-0.0045,-0.0042,-0.0089,-0.009,-0.0091,-0.0092,-0.0093,0,0.0504,0.0539,0.0618,0.0669,0.0695,0.0775,0.0838,0.0882,0.0954,0.0983,0.1022,0.0935,0.0892,0.0623,0.037,0.0123,0.0086,-0.0021,-0.0047,-0.0033,-0.0058,-0.0053,-0.0049,-0.0038,-0.0038,-0.0039,-0.0039,0,0.0552,0.0575,0.0631,0.0735,0.0809,0.091,0.1002,0.1075,0.113,0.1176,0.1219,0.1183,0.0932,0.0695,0.0354,0.0189,0.0019,-0.0031,-0.0023,-0.0006,0.0011,-0.0012,-0.0009,-0.0039,-0.0039,-0.0039,-0.0039,-0.0039,0.0588,0.0637,0.0709,0.0811,0.0906,0.1027,0.1117,0.1216,0.1329,0.1396,0.1364,0.1312,0.1034,0.0611,0.0314,0.0008,0.0022,-0.0092,-0.009,-0.0088,-0.0067,-0.0052,-0.011,-0.011,-0.0111,-0.0111,-0.0111,0,0.0637,0.0693,0.0785,0.0904,0.1014,0.1058,0.1217,0.1302,0.1432,0.1486,0.1511,0.1246,0.0978,0.0658,0.0201,-0.0073,-0.009,-0.0155,-0.0121,-0.0117,-0.0114,-0.0094,-0.0146,-0.0147,-0.0148,-0.0148,0,0,0.0664,0.0751,0.0798,0.0973,0.1063,0.1211,0.1305,0.1419,0.1497,0.1543,0.152,0.1465,0.1078,0.074,0.0369,0.0107,0.0059,0.0061,0.0121,0.021,0.0215,-0.0043,-0.0003,0,0,0,0,0]}],[{"header":{"parameterUnit":"m.s-1","parameterCategory":2,"la1":30.2991,"la2":30.254,"lo1":-89.0895,"lo2":-89.0444,"dy":0.0017,"dx":0.0017,"nx":28,"ny":28,"refTime":"2025-09-01T21:00:00:Z","depth":"4","parameterNumber":2,"parameterNumberName":"U-component_of_CURRENTS"},"data":[0,0,0,0,0,0,0,0,0,0,0,0,0,0,0,0,0,0,0,0,0,0,0,0,0,0,0,0,0,0,0,0,0,0,0,0,0,0,0,0,0,0,0,0,0,0,0,0,0,0,0,0,0,0,0,0,0,0,0.1629,0.163,0,0.1671,0.1671,0.1671,0.1719,0.172,0.1721,0.1722,0.1797,0.1798,0.1799,0,0,0,0,0,0,0,0,0,0,0,0,0,0.1567,0.1568,0.1629,0.163,0.1631,0.1671,0.1671,0.1672,0.1718,0.172,0.1721,0.1722,0.1797,0.1798,0.1799,0,0,0,0,0,0,0,0,0,0,0,0,0,0.1596,0.1568,0.1629,0.1662,0.1666,0.1671,0.1671,0.1672,0.1718,0.172,0.1721,0.1723,0.1796,0.1798,0.1799,0.1777,0,0,0.1804,0.1805,0,0,0,0,0,0,0,0,0.1595,0.1598,0.1656,0.166,0.1664,0.1695,0.1678,0.171,0.1718,0.1694,0.1722,0.1724,0.1767,0.1771,0.177,0.1781,0.1784,0.1804,0.1805,0.1806,0.1806,0,0,0,0,0,0,0,0.1593,0.1597,0.1642,0.1657,0.1662,0.1668,0.1673,0.1683,0.1719,0.1696,0.1701,0.1711,0.1769,0.1768,0.1772,0.1785,0.1804,0.1806,0.1807,0.1807,0.1912,0.1914,0,0,0,0,0,0,0.1595,0.1595,0.164,0.1643,0.1637,0.1668,0.1674,0.168,0.1718,0.1726,0.171,0.1713,0.1765,0.177,0.1775,0.1859,0.1806,0.1807,0.1808,0.191,0.1913,0.1915,0,0,0,0,0,0,0.1593,0.1598,0.1639,0.1623,0.163,0.1668,0.1674,0.168,0.1718,0.1729,0.1737,0.1746,0.1766,0.1773,0.1824,0.1859,0.1808,0.1809,0.1908,0.1911,0.1914,0.1959,0,0,0,0,0,0,0.1591,0.1597,0.1618,0.1623,0.1631,0.1668,0.1673,0.168,0.1721,0.1727,0.1762,0.1768,0.1768,0.1822,0.1826,0.186,0.1811,0.1906,0.1909,0.1913,0.1955,0.1963,0.197,0,0,0,0,0,0.1589,0.1605,0.1619,0.1626,0.1653,0.1669,0.1674,0.1703,0.1722,0.1742,0.1774,0.1769,0.1847,0.1825,0.1829,0.1864,0.1904,0.1908,0.1912,0.1952,0.1962,0.197,0,0,0,0,0,0,0.1589,0.1611,0.1627,0.1651,0.1673,0.168,0.1706,0.1722,0.1759,0.178,0.1787,0.1796,0.1855,0.1855,0.183,0.1907,0.1877,0.1882,0.1906,0.1915,0.1922,0.1929,0.1812,0,0,0,0,0,0.1598,0.162,0.1638,0.1662,0.1677,0.1698,0.1716,0.1736,0.1762,0.1782,0.1807,0.1839,0.1866,0.1889,0.1911,0.1948,0.1955,0.1976,0.1984,0.199,0.2,0.2038,0.2049,0.1928,0.1928,0.1928,0,0,0.1606,0.1623,0.1637,0.1665,0.1686,0.1708,0.1713,0.1752,0.1781,0.1783,0.1844,0.1867,0.1883,0.193,0.1956,0.194,0.2031,0.1995,0.2,0.2007,0.2044,0.2055,0.2066,0.1931,0.1931,0.193,0,0,0.1619,0.1648,0.1669,0.1688,0.173,0.1742,0.1762,0.1793,0.1825,0.1875,0.1889,0.1937,0.1977,0.1995,0.2007,0.2068,0.2068,0.2083,0.2125,0.2162,0.2172,0.218,0.2209,0.222,0.2086,0.2086,0.2086,0,0.1634,0.1654,0.1679,0.1701,0.1724,0.1762,0.1787,0.1817,0.1866,0.1895,0.191,0.1989,0.2005,0.2055,0.2084,0.2084,0.2106,0.2085,0.217,0.2179,0.2187,0.2215,0.2226,0.2089,0.2089,0.2088,0.2088,0,0.1646,0.1679,0.1694,0.1734,0.1763,0.1793,0.1834,0.1882,0.1928,0.1955,0.2033,0.2061,0.2108,0.2123,0.2125,0.2194,0.2191,0.2173,0.2143,0.2202,0.2227,0.2239,0.2093,0.2092,0.2091,0.209,0,0,0.1634,0.1692,0.1702,0.1726,0.1785,0.1803,0.1869,0.1924,0.1976,0.2035,0.2098,0.2153,0.2182,0.2199,0.2212,0.2249,0.2326,0.2246,0.2247,0.2267,0.2415,0.2269,0.2267,0.2327,0.233,0.2331,0.2411,0,0.164,0.1681,0.1713,0.1762,0.1785,0.1842,0.1894,0.1957,0.2022,0.2094,0.2143,0.2212,0.2205,0.2249,0.2284,0.2321,0.2358,0.2307,0.2363,0.2364,0.222,0.2276,0.2338,0.2419,0.2421,0.2423,0.2424,0,0.1634,0.1665,0.1711,0.1776,0.1794,0.1837,0.1933,0.1986,0.209,0.2149,0.2225,0.2269,0.2348,0.2333,0.2421,0.2394,0.2416,0.2434,0.2437,0.2291,0.2238,0.2349,0.2444,0.2443,0.2441,0.244,0.2439,0,0.1592,0.1659,0.1698,0.1718,0.1801,0.1847,0.1905,0.2008,0.2066,0.2199,0.2262,0.2348,0.2412,0.2456,0.2499,0.2478,0.2585,0.255,0.2436,0.2426,0.2513,0.2502,0.2611,0.2611,0.261,0.261,0.261,0,0.1561,0.1595,0.1689,0.1704,0.1765,0.1835,0.1918,0.1997,0.2114,0.2179,0.2291,0.2351,0.2451,0.2515,0.2535,0.2519,0.2613,0.2455,0.2439,0.2531,0.2522,0.2521,0.2509,0.2613,0.2612,0.2612,0.2611,0,0.1496,0.156,0.1606,0.1705,0.1744,0.179,0.1914,0.1965,0.2101,0.2195,0.2245,0.2383,0.2466,0.2539,0.2621,0.2549,0.256,0.2531,0.2642,0.2629,0.2369,0.236,0.2404,0.24,0.2396,0.2393,0.239,0,0.146,0.1479,0.1591,0.1624,0.1673,0.1757,0.1809,0.1948,0.2,0.2186,0.221,0.2353,0.2425,0.2423,0.2511,0.254,0.251,0.2496,0.2412,0.2369,0.235,0.2346,0.2342,0.2384,0.2383,0.2382,0.2381,0,0.1387,0.1444,0.1483,0.1549,0.1611,0.1665,0.1752,0.1778,0.193,0.2073,0.2132,0.2185,0.2272,0.2327,0.2374,0.2385,0.2491,0.2455,0.2462,0.2384,0.2345,0.2329,0.2329,0.2368,0.237,0.2371,0.2372,0,0.134,0.1347,0.141,0.1454,0.1525,0.1543,0.1604,0.1661,0.1734,0.1933,0.1948,0.2103,0.2241,0.2248,0.2289,0.2295,0.2254,0.2168,0.2189,0.2205,0.2102,0.2022,0.194,0,0,0,0,0,0.1281,0.1274,0.1305,0.1342,0.1402,0.1445,0.1548,0.1612,0.1761,0.1752,0.1845,0.1919,0.1988,0.207,0.2037,0.2203,0.2262,0.2154,0.2173,0.2295,0.231,0.2208,0,0,0,0,0,0,0.1239,0.1265,0.1266,0.1238,0.1242,0.1293,0.1354,0.1454,0.1457,0.1622,0.167,0.1803,0.19,0.199,0.2,0.2025,0.1997,0.2256,0.2251,0.2287,0.23,0.2313,0.2212,0,0,0,0,0]},{"header":{"parameterUnit":"m.s-1","parameterCategory":2,"la1":30.2991,"la2":30.254,"lo1":-89.0895,"lo2":-89.0444,"dy":0.0017,"dx":0.0017,"nx":28,"ny":28,"refTime":"2025-09-01T21:00:00:Z","depth":"4","parameterNumber":3,"parameterNumberName":"V-component_of_CURRENTS"},"data":[0,0,0,0,0,0,0,0,0,0,0,0,0,0,0,0,0,0,0,0,0,0,0,0,0,0,0,0,0,0,0,0,0,0,0,0,0,0,0,0,0,0,0,0,0,0,0,0,0,0,0,0,0,0,0,0,0,0,0.0142,0.0142,0,0.0113,0.0112,0.0112,0.0095,0.0095,0.0095,0.0095,0.0046,0.0045,0.0043,0,0,0,0,0,0,0,0,0,0,0,0,0,0.0148,0.0148,0.0142,0.0142,0.0142,0.0113,0.0112,0.0112,0.0095,0.0095,0.0095,0.0095,0.0046,0.0045,0.0043,0,0,0,0,0,0,0,0,0,0,0,0,0,0.0134,0.0148,0.0142,0.013,0.0129,0.0113,0.0112,0.0112,0.0095,0.0095,0.0095,0.0095,0.0047,0.0045,0.0043,0.0032,0,0,0.0037,0.0036,0,0,0,0,0,0,0,0,0.0135,0.0134,0.0132,0.0131,0.0129,0.0108,0.0097,0.0084,0.0095,0.0107,0.0095,0.0095,0.0065,0.0062,0.0056,0.003,0.0027,0.0037,0.0036,0.0035,0.0035,0,0,0,0,0,0,0,0.0136,0.0135,0.013,0.0132,0.013,0.0114,0.0112,0.0094,0.0086,0.0106,0.0105,0.0102,0.0064,0.0058,0.0055,0.0027,0.0037,0.0035,0.0034,0.0034,-0.0004,-0.0004,0,0,0,0,0,0,0.0143,0.0136,0.0131,0.0129,0.0133,0.0114,0.0112,0.0114,0.0086,0.0083,0.0102,0.0102,0.0061,0.0057,0.0053,0.0056,0.0035,0.0033,0.0032,-0.0005,-0.0004,-0.0004,0,0,0,0,0,0,0.0143,0.0143,0.0132,0.0132,0.013,0.0114,0.0117,0.0114,0.0111,0.0084,0.008,0.0103,0.0061,0.0055,0.0044,0.0054,0.0032,0.0031,-0.0005,-0.0005,-0.0004,0.0052,0,0,0,0,0,0,0.0144,0.0143,0.0148,0.0133,0.013,0.013,0.0117,0.0113,0.011,0.0108,0.0083,0.0078,0.006,0.0048,0.0043,0.0051,0.0029,-0.0005,-0.0005,-0.0004,0.005,0.0054,0.0057,0,0,0,0,0,0.0144,0.0153,0.0148,0.0148,0.0137,0.0131,0.0128,0.0116,0.011,0.0112,0.0096,0.0079,0.0045,0.0046,0.004,0.0048,-0.0005,-0.0005,-0.0004,0.0048,0.0053,0.0057,0,0,0,0,0,0,0.0157,0.0152,0.0146,0.0153,0.0145,0.0128,0.0129,0.012,0.0109,0.0109,0.0082,0.0077,0.007,0.0049,0.0051,0.0037,0.0017,0.0016,0.0059,0.0063,0.0067,0.0077,0.0028,0,0,0,0,0,0.0162,0.0169,0.0158,0.0163,0.0161,0.0145,0.0141,0.0135,0.0122,0.0117,0.0099,0.008,0.0065,0.0058,0.004,0.0033,0.0006,0.0032,0.0036,0.004,0.0044,0.0014,0.0015,-0.0003,-0.0003,-0.0003,0,0,0.0168,0.0166,0.0169,0.0166,0.0159,0.0166,0.0143,0.0143,0.015,0.0113,0.0115,0.0093,0.0066,0.0061,0.0055,0.0046,0.003,0.004,0.0044,0.0046,0.0014,0.0016,0.0018,-0.0003,-0.0003,-0.0003,0,0,0.0186,0.0183,0.0195,0.0193,0.0188,0.0181,0.0184,0.0171,0.0166,0.0162,0.014,0.0124,0.01,0.0086,0.0075,0.0087,0.0052,0.0079,0.0109,0.008,0.0081,0.0082,0.005,0.0048,0.0082,0.0082,0.0082,0,0.0193,0.0209,0.0196,0.0208,0.0214,0.0193,0.021,0.0202,0.0187,0.0187,0.017,0.0137,0.0113,0.0108,0.0113,0.0097,0.0072,0.0097,0.0086,0.0086,0.0086,0.0053,0.0049,0.0085,0.0084,0.0084,0.0084,0,0.022,0.0233,0.0241,0.0253,0.0256,0.0267,0.0259,0.0259,0.0248,0.0238,0.0227,0.0189,0.0171,0.0158,0.0139,0.0131,0.0111,0.0095,0.0077,0.0092,0.0055,0.0051,0.0089,0.0088,0.0087,0.0086,0,0,0.0235,0.0257,0.0261,0.0279,0.0284,0.0293,0.0305,0.0311,0.0326,0.0294,0.0302,0.0266,0.0242,0.0227,0.0196,0.0166,0.0143,0.0135,0.0132,0.0109,0.0075,0.0064,0.0058,0.0126,0.0125,0.0125,0.005,0,0.0261,0.03,0.0302,0.0342,0.0363,0.0356,0.0372,0.0374,0.0367,0.0367,0.0321,0.0315,0.027,0.0263,0.0227,0.0167,0.0134,0.0164,0.0059,0.0056,0.005,0.0054,0.0124,0.0046,0.0045,0.0044,0.0044,0,0.0287,0.0314,0.0358,0.0397,0.0405,0.0425,0.0454,0.0469,0.0461,0.0453,0.0431,0.0393,0.0351,0.0308,0.0207,0.0229,0.0159,0.0103,0.0099,0.0067,0.0037,0.0027,0.0035,0.0036,0.0036,0.0037,0.0038,0,0.0308,0.0353,0.0395,0.0407,0.0443,0.0464,0.0486,0.0497,0.0525,0.0513,0.052,0.0457,0.043,0.0334,0.0218,0.0214,0.0098,0.0078,-0.0001,-0.0003,0.0004,0.0004,0.0004,0.0004,0.0004,0.0004,0.0005,0,0.0336,0.037,0.0411,0.0434,0.0493,0.0504,0.0564,0.0571,0.0594,0.0629,0.0572,0.0569,0.0435,0.0352,0.0238,0.0106,0.0112,0.0004,-0.0022,0.0029,0.0032,0.0001,0.0001,0.0002,0.0002,0.0003,0.0003,0,0.0351,0.0376,0.043,0.0482,0.0505,0.055,0.0626,0.0668,0.0679,0.0719,0.0718,0.0654,0.0545,0.0402,0.0243,0.0142,0.0012,-0.0038,0.0028,0.0007,-0.0077,-0.0073,-0.0131,-0.0132,-0.0133,-0.0133,-0.0134,0,0.0362,0.0391,0.0468,0.0511,0.0539,0.0612,0.0666,0.0708,0.0755,0.0768,0.0785,0.0699,0.0633,0.0406,0.0248,0.0029,-0.0007,-0.008,-0.0083,-0.0071,-0.009,-0.0084,-0.0079,-0.0135,-0.0135,-0.0136,-0.0136,0,0.0385,0.0412,0.046,0.0548,0.0615,0.0699,0.0774,0.0814,0.0857,0.0865,0.0839,0.0722,0.0597,0.0413,0.0241,0.0082,-0.0035,-0.0089,-0.0089,-0.0092,-0.0077,-0.0094,-0.0088,-0.0139,-0.0138,-0.0138,-0.0138,0,0.0402,0.0439,0.0503,0.0583,0.0671,0.0756,0.0798,0.0848,0.0894,0.0898,0.0885,0.0749,0.0671,0.044,0.0284,0.0126,0.008,0.0018,0.0012,0.0013,0.0073,0.0115,0.0092,0,0,0,0,0,0.0417,0.0462,0.0534,0.0623,0.0712,0.0766,0.0858,0.0893,0.0929,0.0918,0.0904,0.0786,0.0557,0.0466,0.0306,0.0256,0.0045,0.0061,-0.003,-0.0154,-0.0151,-0.0107,0,0,0,0,0,0,0.0428,0.0493,0.0532,0.0644,0.0709,0.0812,0.0874,0.09,0.0897,0.0901,0.0789,0.0731,0.0517,0.0646,0.0297,0.025,0.0167,-0.0042,-0.0046,-0.0156,-0.0153,-0.0151,-0.0105,0,0,0,0,0]}]]